User: anonymous   Login
Location: Caltech
(34.1382°N, 118.1253°W)
Time: 18:07:54
(UTC-08:00)
Language:

ADEOS II - Orbit

View from above orbital plane
View from above orbital plane
View from above satellite
View from above satellite

Ground track
Ground track

The orbit data is extracted from the following two-line orbital elements,

1 27597U 02056A   14326.13911470  .00000401  00000-0  18164-3 0  4572
2 27597 098.2780 325.5730 0001305 148.6265 253.3683 14.26923553621629
Epoch (UTC): 22 November 2014 03:20:19
Eccentricity: 0.0001305
inclination: 98.2780°
perigee height: 801 km
apogee height: 803 km
right ascension of ascending node: 325.5730°
argument of perigee: 148.6265°
revolutions per day: 14.26923553
mean anomaly at epoch: 253.3683°
orbit number at epoch: 62162

The dashed part of the orbit path shows where the satellite is in the earth's shadow,  

DLR